Weather History for Sedalia, MO

Change the Weather History Date:

Sunday, June 23, 2013

  Actual Average Record
Temperature  
Mean Temperature 81 °F 77 °F  
Max Temperature 91 °F 87 °F 100 °F (1988)
Min Temperature 71 °F 67 °F 46 °F (1972)
Degree Days  
Heating Degree Days 0 0  
Month to date heating degree days 9 4  
Since 1 June heating degree days 9 4  
Since 1 July heating degree days 4745 4569  
Cooling Degree Days 16 12  
Month to date cooling degree days 202 216  
Year to date cooling degree days 350 355  
Since 1 June cooling degree days 202 216  
Growing Degree Days 30 (Base 50)    
Moisture  
Dew Point 69 °F    
Average Humidity 75    
Maximum Humidity 90    
Minimum Humidity 59    
Precipitation  
Precipitation 0.00 in 0.16 in 2.22 in (1969)
Month to date precipitation 2.20 4.15  
Year to date precipitation 25.20 19.30  
Sea Level Pressure  
Sea Level Pressure 29.94 in    
Wind  
Wind Speed 13 mph (SSE)    
Max Wind Speed 24 mph    
Max Gust Speed 33 mph    
Visibility 10 miles    
Events      
T = Trace of Precipitation, MM = Missing Value Source: NWS Daily Summary

Daily Weather History Graph

Daily Weather History Graph

Search for Another Location

Airport:

Trip Planner

Search our weather history database for the weather conditions in past years. The results will help you decide how hot, cold, wet, or windy it might be!

Date:

Astronomy

Jun. 23, 2013 Rise Set
Actual Time 5:48 AM CDT 8:41 PM CDT
Civil Twilight 5:16 AM CDT 9:13 PM CDT
Nautical Twilight 4:36 AM CDT 9:53 PM CDT
Astronomical Twilight 3:50 AM CDT 10:39 PM CDT
Moon 8:55 PM CDT 6:06 AM CDT
Length of Visible Light 15h 56m
Length of Day
14h 52m
Full, 100% of the Moon is Illuminated
Jun 23
Full
Jun 29
Last Quarter
Jul 8
New
Jul 15
First Quarter
Jul 22
Full

Hourly Weather History & Observations

Time (CDT) Temp. Heat Index Dew Point Humidity Pressure Visibility Wind Dir Wind Speed Gust Speed Precip Events Conditions
12:53 AM 75.9 °F - 69.1 °F 79% 29.96 in 10.0 mi SSE 13.8 mph - N/A   Clear
1:53 AM 75.0 °F - 68.0 °F 79% 29.94 in 10.0 mi South 11.5 mph - N/A   Clear
2:53 AM 73.9 °F - 68.0 °F 82% 29.92 in 10.0 mi SSE 13.8 mph - N/A   Clear
3:53 AM 72.0 °F - 66.9 °F 84% 29.93 in 10.0 mi South 8.1 mph - N/A   Clear
4:53 AM 72.0 °F - 68.0 °F 87% 29.94 in 10.0 mi South 9.2 mph - N/A   Clear
5:53 AM 71.1 °F - 68.0 °F 90% 29.94 in 9.0 mi South 8.1 mph - N/A   Clear
6:53 AM 73.0 °F - 69.1 °F 87% 29.94 in 10.0 mi South 9.2 mph - N/A   Clear
7:53 AM 77.0 °F - 70.0 °F 79% 29.94 in 10.0 mi South 11.5 mph - N/A   Clear
8:53 AM 80.1 °F 83.6 °F 71.1 °F 74% 29.94 in 10.0 mi South 18.4 mph - N/A   Clear
9:53 AM 82.9 °F 88.0 °F 72.0 °F 69% 29.96 in 10.0 mi SSW 15.0 mph 24.2 mph N/A   Clear
10:53 AM 87.1 °F 93.6 °F 72.0 °F 61% 29.96 in 10.0 mi SSW 15.0 mph 21.9 mph N/A   Clear
11:53 AM 88.0 °F 93.8 °F 71.1 °F 57% 29.96 in 10.0 mi SSW 16.1 mph 21.9 mph N/A   Partly Cloudy
12:53 PM 89.1 °F 98.0 °F 73.9 °F 61% 29.94 in 10.0 mi South 18.4 mph 25.3 mph N/A   Clear
1:53 PM 90.0 °F 99.0 °F 73.9 °F 59% 29.92 in 10.0 mi South 20.7 mph 25.3 mph N/A   Partly Cloudy
2:53 PM 87.1 °F 93.6 °F 72.0 °F 61% 29.91 in 10.0 mi South 9.2 mph 20.7 mph N/A   Partly Cloudy
3:53 PM 73.9 °F - 66.9 °F 79% 29.96 in 10.0 mi NE 13.8 mph 31.1 mph N/A   Mostly Cloudy
4:53 PM 75.0 °F - 64.9 °F 71% 29.93 in 10.0 mi East 9.2 mph - N/A   Clear
5:53 PM 78.1 °F - 66.9 °F 68% 29.86 in 10.0 mi SE 19.6 mph 26.5 mph N/A   Clear
6:53 PM 80.1 °F 82.7 °F 68.0 °F 67% 29.90 in 10.0 mi SE 12.7 mph 19.6 mph N/A   Clear
7:53 PM 78.1 °F - 66.9 °F 68% 29.92 in 10.0 mi SSE 13.8 mph - N/A   Clear
8:53 PM 75.9 °F - 66.9 °F 74% 29.93 in 10.0 mi SSE 11.5 mph - N/A   Clear
9:53 PM 75.9 °F - 68.0 °F 76% 29.95 in 10.0 mi SSE 11.5 mph - N/A   Clear
10:53 PM 75.9 °F - 69.1 °F 79% 29.97 in 10.0 mi SE 12.7 mph - N/A   Clear
11:53 PM 77.0 °F - 70.0 °F 79% 29.97 in 10.0 mi SSE 11.5 mph - N/A   Clear